,,,PA_Meas_PMT16A,,PR_Meas_QMR101_102,,RH_Meas_QMH101,,SR_Meas_QMS101,,TA_Meas_QMH101,,GenWind,,GenWind,
date,time,status,PA,status,PR,status,RH,status,SR,status,TA,status,DirAvg,status,SpdAvg,
2011-06-23, 00:00:04,VALID,1003.55,VALID,0,INVALID,163.815,VALID,0,VALID,22.7287,VALID,47,VALID,0,
2011-06-23, 00:01:04,VALID,1003.55,VALID,0.5,INVALID,163.838,VALID,0,VALID,22.7482,VALID,98,VALID,0,
2011-06-23, 00:02:04,VALID,1003.56,VALID,0,INVALID,163.815,VALID,0,VALID,22.7888,VALID,101,VALID,0,
2011-06-23, 00:03:04,VALID,1003.54,VALID,0,INVALID,163.845,VALID,0,VALID,22.7499,VALID,59,VALID,0,
2011-06-23, 00:04:04,VALID,1003.49,VALID,0.5,INVALID,163.853,VALID,0,VALID,22.7305,VALID,43,VALID,0,
2011-06-23, 00:05:04,VALID,1003.46,VALID,0,INVALID,163.83,VALID,0,VALID,22.6704,VALID,35,VALID,0,
2011-06-23, 00:06:04,VALID,1003.43,VALID,0,INVALID,163.845,VALID,0,VALID,22.6526,VALID,101,VALID,0,
2011-06-23, 00:07:04,VALID,1003.44,VALID,0.5,INVALID,163.83,VALID,0,VALID,22.6332,VALID,77,VALID,0,
2011-06-23, 00:08:04,VALID,1003.46,VALID,0,INVALID,163.823,VALID,0,VALID,22.6526,VALID,66,VALID,0,
2011-06-23, 00:09:04,VALID,1003.47,VALID,0,INVALID,163.8,VALID,0,VALID,22.6526,VALID,87,VALID,0,
2011-06-23, 00:10:04,VALID,1003.47,VALID,0,INVALID,163.838,VALID,0,VALID,22.6315,VALID,115,VALID,0,
2011-06-23, 00:11:04,VALID,1003.46,VALID,0.5,INVALID,163.853,VALID,0,VALID,22.612,VALID,99,VALID,0,
2011-06-23, 00:12:04,VALID,1003.45,VALID,0,INVALID,163.815,VALID,0,VALID,22.6721,VALID,34,VALID,0,
2011-06-23, 00:13:04,VALID,1003.43,VALID,0,INVALID,163.845,VALID,0,VALID,22.6509,VALID,35,VALID,0,
2011-06-23, 00:14:04,VALID,1003.44,VALID,0,INVALID,163.861,VALID,0,VALID,22.6721,VALID,34,VALID,0,
2011-06-23, 00:15:04,VALID,1003.39,VALID,0,INVALID,163.845,VALID,0.100563,VALID,22.6509,VALID,18,VALID,0,
2011-06-23, 00:16:04,VALID,1003.38,VALID,0,INVALID,163.83,VALID,0,VALID,22.6297,VALID,29,VALID,0,
2011-06-23, 00:17:04,VALID,1003.35,VALID,0,INVALID,163.83,VALID,0.100563,VALID,22.6509,VALID,6,VALID,0,
2011-06-23, 00:18:04,VALID,1003.31,VALID,0.5,INVALID,163.853,VALID,0,VALID,22.6509,VALID,20,VALID,0,
2011-06-23, 00:19:04,VALID,1003.29,VALID,0,INVALID,163.823,VALID,0,VALID,22.6704,VALID,357,VALID,0,
2011-06-23, 00:20:04,VALID,1003.24,VALID,0,INVALID,163.83,VALID,0,VALID,22.6898,VALID,2,VALID,0,
2011-06-23, 00:21:04,VALID,1003.21,VALID,0,INVALID,163.83,VALID,0.100563,VALID,22.7076,VALID,355,VALID,0,
2011-06-23, 00:22:04,VALID,1003.17,VALID,0,INVALID,163.815,VALID,0.100563,VALID,22.727,VALID,344,VALID,0,
2011-06-23, 00:23:04,VALID,1003.15,VALID,0,INVALID,163.807,VALID,0,VALID,22.7482,VALID,356,VALID,0,
2011-06-23, 00:24:04,VALID,1003.1,VALID,0,INVALID,163.845,VALID,0,VALID,22.7871,VALID,352,VALID,0,
2011-06-23, 00:25:04,VALID,1003.06,VALID,0,INVALID,163.83,VALID,0,VALID,22.826,VALID,353,VALID,0,
2011-06-23, 00:26:04,VALID,1003.04,VALID,0,INVALID,163.853,VALID,0,VALID,22.8455,VALID,350,VALID,0,
2011-06-23, 00:27:04,VALID,1003.02,VALID,0,INVALID,163.838,VALID,0,VALID,22.8066,VALID,355,VALID,0,
2011-06-23, 00:28:04,VALID,1002.99,VALID,0,INVALID,163.807,VALID,0,VALID,22.8472,VALID,343,VALID,0,
2011-06-23, 00:29:04,VALID,1002.98,VALID,0,INVALID,163.807,VALID,0,VALID,22.826,VALID,360,VALID,0,
2011-06-23, 00:30:04,VALID,1002.94,VALID,0,INVALID,163.807,VALID,0,VALID,22.8649,VALID,341,VALID,0,
2011-06-23, 00:31:04,VALID,1002.93,VALID,0,INVALID,163.823,VALID,0,VALID,22.8844,VALID,347,VALID,0,
2011-06-23, 00:32:04,VALID,1002.88,VALID,0,INVALID,163.815,VALID,0,VALID,22.8861,VALID,337,VALID,0,
2011-06-23, 00:33:04,VALID,1002.88,VALID,0,INVALID,163.823,VALID,0,VALID,22.9039,VALID,337,VALID,0,
2011-06-23, 00:34:04,VALID,1002.87,VALID,0,INVALID,163.815,VALID,0,VALID,22.9233,VALID,337,VALID,0,
2011-06-23, 00:35:04,VALID,1002.89,VALID,0,INVALID,163.823,VALID,0,VALID,22.9216,VALID,348,VALID,0,
2011-06-23, 00:36:04,VALID,1002.87,VALID,0,INVALID,163.815,VALID,0,VALID,22.9039,VALID,354,VALID,0,
2011-06-23, 00:37:04,VALID,1002.91,VALID,0,INVALID,163.838,VALID,0,VALID,22.9039,VALID,360,VALID,0,
2011-06-23, 00:38:04,VALID,1002.88,VALID,0,INVALID,163.845,VALID,0,VALID,22.9233,VALID,360,VALID,0,
2011-06-23, 00:39:04,VALID,1002.9,VALID,0,INVALID,163.838,VALID,0,VALID,22.9233,VALID,360,VALID,0,
2011-06-23, 00:40:04,VALID,1002.86,VALID,0,INVALID,163.83,VALID,0,VALID,22.9233,VALID,360,VALID,0,
2011-06-23, 00:41:04,VALID,1002.85,VALID,0,INVALID,163.815,VALID,0,VALID,22.9233,VALID,360,VALID,0,
2011-06-23, 00:42:04,VALID,1002.82,VALID,0,INVALID,163.823,VALID,0,VALID,22.9233,VALID,329,VALID,0,
2011-06-23, 00:43:04,VALID,1002.82,VALID,0,INVALID,163.83,VALID,0,VALID,22.9039,VALID,356,VALID,0,
2011-06-23, 00:44:04,VALID,1002.83,VALID,0,INVALID,163.823,VALID,0,VALID,22.8632,VALID,360,VALID,0,
2011-06-23, 00:45:04,VALID,1002.82,VALID,0,INVALID,163.838,VALID,0,VALID,22.8455,VALID,352,VALID,0,
2011-06-23, 00:46:04,VALID,1002.79,VALID,0,INVALID,163.838,VALID,0,VALID,22.826,VALID,3,VALID,0,
2011-06-23, 00:47:04,VALID,1002.77,VALID,0,INVALID,163.815,VALID,0,VALID,22.8066,VALID,347,VALID,0,
2011-06-23, 00:48:04,VALID,1002.78,VALID,0,INVALID,163.838,VALID,0,VALID,22.7888,VALID,347,VALID,0,
2011-06-23, 00:49:04,VALID,1002.76,VALID,0,INVALID,163.83,VALID,0,VALID,22.7677,VALID,349,VALID,0,
2011-06-23, 00:50:04,VALID,1002.75,VALID,0,INVALID,163.853,VALID,0,VALID,22.7677,VALID,348,VALID,0,
2011-06-23, 00:51:04,VALID,1002.75,VALID,0,INVALID,163.853,VALID,0,VALID,22.7888,VALID,352,VALID,0,
2011-06-23, 00:52:04,VALID,1002.72,VALID,0,INVALID,163.823,VALID,0,VALID,22.7871,VALID,358,VALID,0,
2011-06-23, 00:53:04,VALID,1002.76,VALID,0,INVALID,163.83,VALID,0,VALID,22.8083,VALID,358,VALID,0,
2011-06-23, 00:54:04,VALID,1002.73,VALID,0,INVALID,163.823,VALID,0,VALID,22.8066,VALID,358,VALID,0,
2011-06-23, 00:55:04,VALID,1002.69,VALID,0,INVALID,163.838,VALID,0,VALID,22.8066,VALID,358,VALID,0,
2011-06-23, 00:56:04,VALID,1002.68,VALID,0,INVALID,163.838,VALID,0,VALID,22.8066,VALID,358,VALID,0,
2011-06-23, 00:57:04,VALID,1002.68,VALID,0,INVALID,163.861,VALID,0,VALID,22.8667,VALID,358,VALID,0,
2011-06-23, 00:58:04,VALID,1002.67,VALID,0,INVALID,163.83,VALID,0,VALID,22.8455,VALID,358,VALID,0,
2011-06-23, 00:59:04,VALID,1002.66,VALID,0,INVALID,163.823,VALID,0,VALID,22.8649,VALID,358,VALID,0,
2011-06-23, 01:00:04,VALID,1002.68,VALID,0,INVALID,163.838,VALID,0,VALID,22.8844,VALID,358,VALID,0,
2011-06-23, 01:01:04,VALID,1002.64,VALID,0,INVALID,163.83,VALID,0,VALID,22.8632,VALID,358,VALID,0,
2011-06-23, 01:02:04,VALID,1002.62,VALID,0,INVALID,163.815,VALID,0,VALID,22.8649,VALID,358,VALID,0,
2011-06-23, 01:03:04,VALID,1002.59,VALID,0,INVALID,163.83,VALID,0,VALID,22.8455,VALID,358,VALID,0,
2011-06-23, 01:04:04,VALID,1002.57,VALID,0,INVALID,163.815,VALID,0.100563,VALID,22.8243,VALID,358,VALID,0,
2011-06-23, 01:05:04,VALID,1002.53,VALID,0,INVALID,163.823,VALID,0,VALID,22.8243,VALID,358,VALID,0,
2011-06-23, 01:06:04,VALID,1002.57,VALID,0,INVALID,163.823,VALID,0.100563,VALID,22.8438,VALID,358,VALID,0,
2011-06-23, 01:07:04,VALID,1002.55,VALID,0,INVALID,163.815,VALID,0.100563,VALID,22.8438,VALID,358,VALID,0,
2011-06-23, 01:08:04,VALID,1002.56,VALID,0,INVALID,163.861,VALID,0,VALID,22.8438,VALID,358,VALID,0,
2011-06-23, 01:09:04,VALID,1002.57,VALID,0,INVALID,163.845,VALID,0,VALID,22.826,VALID,358,VALID,0,
2011-06-23, 01:10:04,VALID,1002.55,VALID,0,INVALID,163.83,VALID,0,VALID,22.8048,VALID,358,VALID,0,
2011-06-23, 01:11:04,VALID,1002.53,VALID,0,INVALID,163.861,VALID,0.100563,VALID,22.8048,VALID,358,VALID,0,
2011-06-23, 01:12:04,VALID,1002.55,VALID,0,INVALID,163.838,VALID,0,VALID,22.8066,VALID,358,VALID,0,
2011-06-23, 01:13:04,VALID,1002.54,VALID,0,INVALID,163.838,VALID,0,VALID,22.7659,VALID,358,VALID,0,
2011-06-23, 01:14:04,VALID,1002.55,VALID,0,INVALID,163.861,VALID,0,VALID,22.7465,VALID,25,VALID,0,
2011-06-23, 01:15:04,VALID,1002.52,VALID,0,INVALID,163.83,VALID,0,VALID,22.727,VALID,34,VALID,0,
2011-06-23, 01:16:04,VALID,1002.51,VALID,0,INVALID,163.838,VALID,0,VALID,22.727,VALID,39,VALID,0,
2011-06-23, 01:17:04,VALID,1002.48,VALID,0,INVALID,163.838,VALID,0,VALID,22.7076,VALID,43,VALID,0,
2011-06-23, 01:18:04,VALID,1002.48,VALID,0,INVALID,163.838,VALID,0,VALID,22.7076,VALID,43,VALID,0,
2011-06-23, 01:19:04,VALID,1002.52,VALID,0,INVALID,163.83,VALID,0,VALID,22.6864,VALID,43,VALID,0,
2011-06-23, 01:20:04,VALID,1002.48,VALID,0,INVALID,163.868,VALID,0.100563,VALID,22.7093,VALID,43,VALID,0,
2011-06-23, 01:21:04,VALID,1002.45,VALID,0,INVALID,163.853,VALID,0,VALID,22.7093,VALID,43,VALID,0,
2011-06-23, 01:22:04,VALID,1002.44,VALID,0,INVALID,163.83,VALID,0,VALID,22.6881,VALID,39,VALID,0,
2011-06-23, 01:23:04,VALID,1002.43,VALID,0,INVALID,163.853,VALID,0.100563,VALID,22.6686,VALID,39,VALID,0,
2011-06-23, 01:24:04,VALID,1002.38,VALID,0,INVALID,163.861,VALID,0,VALID,22.6898,VALID,39,VALID,0,
2011-06-23, 01:25:04,VALID,1002.36,VALID,0,INVALID,163.823,VALID,0,VALID,22.6704,VALID,39,VALID,0,
2011-06-23, 01:26:04,VALID,1002.34,VALID,0,INVALID,163.838,VALID,0,VALID,22.6297,VALID,39,VALID,0,
2011-06-23, 01:27:04,VALID,1002.29,VALID,0,INVALID,163.845,VALID,0,VALID,22.6103,VALID,39,VALID,0,
2011-06-23, 01:28:04,VALID,1002.24,VALID,0,INVALID,163.853,VALID,0,VALID,22.612,VALID,39,VALID,0,
2011-06-23, 01:29:04,VALID,1002.21,VALID,0,INVALID,163.83,VALID,0,VALID,22.612,VALID,39,VALID,0,
2011-06-23, 01:30:04,VALID,1002.23,VALID,0,INVALID,163.884,VALID,0.100563,VALID,22.612,VALID,39,VALID,0,
2011-06-23, 01:31:04,VALID,1002.22,VALID,0,INVALID,163.853,VALID,0,VALID,22.612,VALID,39,VALID,0,
2011-06-23, 01:32:04,VALID,1002.23,VALID,0,INVALID,163.838,VALID,0.100563,VALID,22.5908,VALID,39,VALID,0,
2011-06-23, 01:33:04,VALID,1002.21,VALID,0,INVALID,163.838,VALID,0.100563,VALID,22.5908,VALID,39,VALID,0,
2011-06-23, 01:34:04,VALID,1002.2,VALID,0,INVALID,163.838,VALID,0,VALID,22.5908,VALID,39,VALID,0,
2011-06-23, 01:35:04,VALID,1002.19,VALID,0,INVALID,163.853,VALID,0,VALID,22.5925,VALID,36,VALID,0,
2011-06-23, 01:36:04,VALID,1002.19,VALID,0,INVALID,163.868,VALID,0,VALID,22.5519,VALID,1,VALID,0,
2011-06-23, 01:37:04,VALID,1002.18,VALID,0,INVALID,163.853,VALID,0.100563,VALID,22.5731,VALID,1,VALID,0,
2011-06-23, 01:38:04,VALID,1002.14,VALID,0,INVALID,163.823,VALID,0.100563,VALID,22.5325,VALID,1,VALID,0,
2011-06-23, 01:39:04,VALID,1002.15,VALID,0,INVALID,163.868,VALID,0.100563,VALID,22.5325,VALID,1,VALID,0,
2011-06-23, 01:40:04,VALID,1002.13,VALID,0,INVALID,163.838,VALID,0.100563,VALID,22.4918,VALID,1,VALID,0,
2011-06-23, 01:41:04,VALID,1002.12,VALID,0,INVALID,163.861,VALID,0.100563,VALID,22.513,VALID,1,VALID,0,
2011-06-23, 01:42:04,VALID,1002.12,VALID,0,INVALID,163.83,VALID,0,VALID,22.5342,VALID,1,VALID,0,
2011-06-23, 01:43:04,VALID,1002.12,VALID,0,INVALID,163.876,VALID,0.100563,VALID,22.513,VALID,1,VALID,0,
2011-06-23, 01:44:04,VALID,1002.13,VALID,0,INVALID,163.845,VALID,0.100563,VALID,22.4936,VALID,1,VALID,0,
2011-06-23, 01:45:04,VALID,1002.06,VALID,0,INVALID,163.838,VALID,0,VALID,22.4758,VALID,1,VALID,0,
2011-06-23, 01:46:04,VALID,1002.05,VALID,0,INVALID,163.861,VALID,0,VALID,22.497,VALID,1,VALID,0,
2011-06-23, 01:47:04,VALID,1002.05,VALID,0,INVALID,163.853,VALID,0,VALID,22.4758,VALID,1,VALID,0,
2011-06-23, 01:48:04,VALID,1002.06,VALID,0,INVALID,163.845,VALID,0,VALID,22.4563,VALID,1,VALID,0,
2011-06-23, 01:49:05,VALID,1002.05,VALID,0,INVALID,163.868,VALID,0,VALID,22.4758,VALID,1,VALID,0,
2011-06-23, 01:50:05,VALID,1002.06,VALID,0,INVALID,163.838,VALID,0,VALID,22.4758,VALID,1,VALID,0,
2011-06-23, 01:51:05,VALID,1002.08,VALID,0,INVALID,163.845,VALID,0,VALID,22.4775,VALID,1,VALID,0,
2011-06-23, 01:52:05,VALID,1002.08,VALID,0,INVALID,163.861,VALID,0,VALID,22.4775,VALID,1,VALID,0,
2011-06-23, 01:53:05,VALID,1002.05,VALID,0,INVALID,163.868,VALID,0,VALID,22.4775,VALID,1,VALID,0,
2011-06-23, 01:54:05,VALID,1002.08,VALID,0,INVALID,163.868,VALID,0,VALID,22.4563,VALID,1,VALID,0,
2011-06-23, 01:55:05,VALID,1002.08,VALID,0.5,INVALID,163.853,VALID,0,VALID,22.3963,VALID,1,VALID,0,
2011-06-23, 01:56:05,VALID,1002.08,VALID,0,INVALID,163.853,VALID,0,VALID,22.4174,VALID,1,VALID,0,
2011-06-23, 01:57:05,VALID,1002.07,VALID,0,INVALID,163.838,VALID,0,VALID,22.4191,VALID,1,VALID,0,
2011-06-23, 01:58:05,VALID,1002.1,VALID,0,INVALID,163.861,VALID,0,VALID,22.398,VALID,1,VALID,0,
2011-06-23, 01:59:05,VALID,1002.08,VALID,0,INVALID,163.861,VALID,0,VALID,22.4191,VALID,1,VALID,0,
2011-06-23, 02:00:05,VALID,1002.08,VALID,0,INVALID,163.876,VALID,0,VALID,22.398,VALID,1,VALID,0,
2011-06-23, 02:01:05,VALID,1002.09,VALID,0,INVALID,163.884,VALID,0,VALID,22.3785,VALID,1,VALID,0,
2011-06-23, 02:02:05,VALID,1002.1,VALID,0,INVALID,163.891,VALID,0,VALID,22.3768,VALID,1,VALID,0,
2011-06-23, 02:03:05,VALID,1002.06,VALID,0,INVALID,163.876,VALID,0,VALID,22.398,VALID,1,VALID,0,
2011-06-23, 02:04:05,VALID,1002.06,VALID,0,INVALID,163.861,VALID,0,VALID,22.398,VALID,1,VALID,0,
2011-06-23, 02:05:05,VALID,1002.03,VALID,0,INVALID,163.868,VALID,0,VALID,22.4369,VALID,1,VALID,0,
2011-06-23, 02:06:05,VALID,1002,VALID,0,INVALID,163.861,VALID,0,VALID,22.4563,VALID,359,VALID,0,
2011-06-23, 02:07:05,VALID,1001.97,VALID,0,INVALID,163.861,VALID,0,VALID,22.5164,VALID,355,VALID,0,
2011-06-23, 02:08:05,VALID,1001.98,VALID,0,INVALID,163.853,VALID,0,VALID,22.4953,VALID,355,VALID,0,
2011-06-23, 02:09:05,VALID,1001.95,VALID,0,INVALID,163.853,VALID,0,VALID,22.5342,VALID,355,VALID,0,
2011-06-23, 02:10:05,VALID,1001.93,VALID,0,INVALID,163.868,VALID,0,VALID,22.5342,VALID,354,VALID,0,
2011-06-23, 02:11:05,VALID,1001.92,VALID,0,INVALID,163.853,VALID,0,VALID,22.5342,VALID,355,VALID,0,
2011-06-23, 02:12:05,VALID,1001.9,VALID,0,INVALID,163.838,VALID,0,VALID,22.5536,VALID,354,VALID,0,
2011-06-23, 02:13:05,VALID,1001.88,VALID,0,INVALID,163.853,VALID,0,VALID,22.5748,VALID,346,VALID,0,
2011-06-23, 02:14:05,VALID,1001.88,VALID,0,INVALID,163.853,VALID,0,VALID,22.5536,VALID,327,VALID,0,
2011-06-23, 02:15:05,VALID,1001.86,VALID,0,INVALID,163.861,VALID,0.100563,VALID,22.612,VALID,2,VALID,0,
2011-06-23, 02:16:05,VALID,1001.84,VALID,0,INVALID,163.853,VALID,0,VALID,22.612,VALID,331,VALID,0,
2011-06-23, 02:17:05,VALID,1001.82,VALID,0,INVALID,163.861,VALID,0,VALID,22.6103,VALID,342,VALID,0,
2011-06-23, 02:18:05,VALID,1001.83,VALID,0,INVALID,163.845,VALID,0,VALID,22.612,VALID,349,VALID,0,
2011-06-23, 02:19:05,VALID,1001.8,VALID,0,INVALID,163.853,VALID,0.100563,VALID,22.6103,VALID,359,VALID,0,
2011-06-23, 02:20:05,VALID,1001.8,VALID,0,INVALID,163.853,VALID,0,VALID,22.6509,VALID,351,VALID,0,
2011-06-23, 02:21:05,VALID,1001.78,VALID,0,INVALID,163.823,VALID,0,VALID,22.6103,VALID,346,VALID,0,
2011-06-23, 02:22:05,VALID,1001.77,VALID,0,INVALID,163.838,VALID,0,VALID,22.6297,VALID,358,VALID,0,
2011-06-23, 02:23:05,VALID,1001.75,VALID,0,INVALID,163.845,VALID,0.100563,VALID,22.6103,VALID,345,VALID,0,
2011-06-23, 02:24:05,VALID,1001.71,VALID,0,INVALID,163.861,VALID,0.100563,VALID,22.612,VALID,353,VALID,0,
2011-06-23, 02:25:05,VALID,1001.7,VALID,0,INVALID,163.838,VALID,0,VALID,22.5908,VALID,354,VALID,0,
2011-06-23, 02:26:05,VALID,1001.69,VALID,0,INVALID,163.845,VALID,0.100563,VALID,22.5908,VALID,358,VALID,0,
2011-06-23, 02:27:05,VALID,1001.65,VALID,0,INVALID,163.838,VALID,0.100563,VALID,22.6103,VALID,338,VALID,0,
2011-06-23, 02:28:05,VALID,1001.65,VALID,0,INVALID,163.838,VALID,0.100563,VALID,22.5908,VALID,349,VALID,0,
2011-06-23, 02:29:05,VALID,1001.66,VALID,0,INVALID,163.853,VALID,0.100563,VALID,22.5714,VALID,349,VALID,0,
2011-06-23, 02:30:05,VALID,1001.62,VALID,0,INVALID,163.838,VALID,0,VALID,22.5731,VALID,350,VALID,0,
2011-06-23, 02:31:05,VALID,1001.61,VALID,0,INVALID,163.83,VALID,0,VALID,22.5748,VALID,354,VALID,0,
2011-06-23, 02:32:05,VALID,1001.58,VALID,0,INVALID,163.853,VALID,0,VALID,22.5748,VALID,359,VALID,0,
2011-06-23, 02:33:05,VALID,1001.57,VALID,0,INVALID,163.838,VALID,0,VALID,22.5748,VALID,357,VALID,0,
2011-06-23, 02:34:05,VALID,1001.6,VALID,0,INVALID,163.853,VALID,0,VALID,22.5748,VALID,354,VALID,0,
2011-06-23, 02:35:05,VALID,1001.6,VALID,0,INVALID,163.861,VALID,0,VALID,22.5342,VALID,353,VALID,0,
2011-06-23, 02:36:05,VALID,1001.61,VALID,0,INVALID,163.845,VALID,0,VALID,22.5147,VALID,352,VALID,0,
2011-06-23, 02:37:05,VALID,1001.6,VALID,0,INVALID,163.861,VALID,0,VALID,22.5147,VALID,352,VALID,0,
2011-06-23, 02:38:05,VALID,1001.6,VALID,0,INVALID,163.845,VALID,0,VALID,22.5147,VALID,342,VALID,0,
2011-06-23, 02:39:05,VALID,1001.57,VALID,0,INVALID,163.876,VALID,0,VALID,22.5147,VALID,341,VALID,0,
2011-06-23, 02:40:05,VALID,1001.52,VALID,0,INVALID,163.876,VALID,0,VALID,22.5342,VALID,344,VALID,0,
2011-06-23, 02:41:05,VALID,1001.51,VALID,0,INVALID,163.868,VALID,0,VALID,22.5342,VALID,297,VALID,0,
2011-06-23, 02:42:05,VALID,1001.46,VALID,0,INVALID,163.853,VALID,0,VALID,22.5553,VALID,298,VALID,0,
2011-06-23, 02:43:05,VALID,1001.46,VALID,0,INVALID,163.83,VALID,0,VALID,22.5748,VALID,298,VALID,0,
2011-06-23, 02:44:05,VALID,1001.44,VALID,0,INVALID,163.838,VALID,0,VALID,22.5342,VALID,358,VALID,0,
2011-06-23, 02:45:05,VALID,1001.44,VALID,0,INVALID,163.845,VALID,0,VALID,22.5342,VALID,356,VALID,0,
2011-06-23, 02:46:05,VALID,1001.42,VALID,0,INVALID,163.868,VALID,0,VALID,22.5342,VALID,353,VALID,0,
2011-06-23, 02:47:05,VALID,1001.37,VALID,0,INVALID,163.891,VALID,0,VALID,22.5359,VALID,5,VALID,0,
2011-06-23, 02:48:05,VALID,1001.37,VALID,0,INVALID,163.853,VALID,0,VALID,22.5147,VALID,350,VALID,0,
2011-06-23, 02:49:05,VALID,1001.32,VALID,0,INVALID,163.868,VALID,0,VALID,22.4953,VALID,351,VALID,0,
2011-06-23, 02:50:05,VALID,1001.37,VALID,0,INVALID,163.853,VALID,0,VALID,22.497,VALID,347,VALID,0,
2011-06-23, 02:51:05,VALID,1001.35,VALID,0,INVALID,163.876,VALID,0,VALID,22.4953,VALID,308,VALID,0,
2011-06-23, 02:52:05,VALID,1001.37,VALID,0,INVALID,163.861,VALID,0,VALID,22.4953,VALID,358,VALID,0,
2011-06-23, 02:53:05,VALID,1001.38,VALID,0,INVALID,163.845,VALID,0,VALID,22.5147,VALID,357,VALID,0,
2011-06-23, 02:54:05,VALID,1001.36,VALID,0,INVALID,163.868,VALID,0,VALID,22.5147,VALID,357,VALID,0,
2011-06-23, 02:55:05,VALID,1001.39,VALID,0,INVALID,163.838,VALID,0,VALID,22.5164,VALID,357,VALID,0,
2011-06-23, 02:56:05,VALID,1001.38,VALID,0,INVALID,163.838,VALID,0,VALID,22.497,VALID,357,VALID,0,
2011-06-23, 02:57:05,VALID,1001.36,VALID,0,INVALID,163.861,VALID,0,VALID,22.4563,VALID,30,VALID,0,
2011-06-23, 02:58:05,VALID,1001.39,VALID,0,INVALID,163.884,VALID,0,VALID,22.4758,VALID,20,VALID,0,
2011-06-23, 02:59:05,VALID,1001.38,VALID,0,INVALID,163.884,VALID,0,VALID,22.4758,VALID,6,VALID,0,
2011-06-23, 03:00:05,VALID,1001.36,VALID,0,INVALID,163.868,VALID,0,VALID,22.4775,VALID,2,VALID,0,
2011-06-23, 03:01:05,VALID,1001.36,VALID,0,INVALID,163.868,VALID,0,VALID,22.4352,VALID,360,VALID,0,
2011-06-23, 03:02:05,VALID,1001.36,VALID,0,INVALID,163.845,VALID,0,VALID,22.4563,VALID,360,VALID,0,
2011-06-23, 03:03:05,VALID,1001.36,VALID,0,INVALID,163.853,VALID,0,VALID,22.497,VALID,360,VALID,0,
2011-06-23, 03:04:05,VALID,1001.35,VALID,0,INVALID,163.861,VALID,0,VALID,22.497,VALID,360,VALID,0,
2011-06-23, 03:05:05,VALID,1001.37,VALID,0,INVALID,163.868,VALID,0,VALID,22.497,VALID,360,VALID,0,
2011-06-23, 03:06:05,VALID,1001.37,VALID,0,INVALID,163.868,VALID,0,VALID,22.4953,VALID,360,VALID,0,
2011-06-23, 03:07:05,VALID,1001.41,VALID,0,INVALID,163.853,VALID,0,VALID,22.4758,VALID,360,VALID,0,
2011-06-23, 03:08:05,VALID,1001.43,VALID,0,INVALID,163.868,VALID,0,VALID,22.4741,VALID,7,VALID,0,
2011-06-23, 03:09:05,VALID,1001.42,VALID,0,INVALID,163.861,VALID,0,VALID,22.4741,VALID,8,VALID,0,
2011-06-23, 03:10:05,VALID,1001.41,VALID,0,INVALID,163.83,VALID,0,VALID,22.5359,VALID,8,VALID,0,
2011-06-23, 03:11:05,VALID,1001.39,VALID,0,INVALID,163.868,VALID,0,VALID,22.5147,VALID,8,VALID,0,
2011-06-23, 03:12:05,VALID,1001.37,VALID,0,INVALID,163.83,VALID,0,VALID,22.5147,VALID,5,VALID,0,
2011-06-23, 03:13:05,VALID,1001.39,VALID,0,INVALID,163.861,VALID,0,VALID,22.5342,VALID,4,VALID,0,
2011-06-23, 03:14:05,VALID,1001.43,VALID,0,INVALID,163.876,VALID,0,VALID,22.5536,VALID,4,VALID,0,
2011-06-23, 03:15:05,VALID,1001.41,VALID,0,INVALID,163.868,VALID,0,VALID,22.5731,VALID,4,VALID,0,
2011-06-23, 03:16:05,VALID,1001.35,VALID,0,INVALID,163.838,VALID,0,VALID,22.5925,VALID,4,VALID,0,
2011-06-23, 03:17:05,VALID,1001.37,VALID,0,INVALID,163.83,VALID,0,VALID,22.612,VALID,1,VALID,0,
2011-06-23, 03:18:05,VALID,1001.36,VALID,0,INVALID,163.853,VALID,0,VALID,22.6315,VALID,1,VALID,0,
2011-06-23, 03:19:05,VALID,1001.38,VALID,0,INVALID,163.861,VALID,0,VALID,22.6315,VALID,1,VALID,0,
2011-06-23, 03:20:05,VALID,1001.39,VALID,0,INVALID,163.853,VALID,0,VALID,22.6315,VALID,1,VALID,0,
2011-06-23, 03:21:05,VALID,1001.41,VALID,0,INVALID,163.861,VALID,0,VALID,22.6721,VALID,1,VALID,0,
2011-06-23, 03:22:05,VALID,1001.38,VALID,0,INVALID,163.853,VALID,0,VALID,22.6509,VALID,1,VALID,0,
2011-06-23, 03:23:05,VALID,1001.36,VALID,0,INVALID,163.853,VALID,0,VALID,22.6492,VALID,1,VALID,0,
2011-06-23, 03:24:05,VALID,1001.34,VALID,0,INVALID,163.861,VALID,0,VALID,22.6509,VALID,1,VALID,0,
2011-06-23, 03:25:05,VALID,1001.36,VALID,0,INVALID,163.876,VALID,0,VALID,22.6297,VALID,1,VALID,0,
2011-06-23, 03:26:05,VALID,1001.36,VALID,0,INVALID,163.838,VALID,0,VALID,22.6509,VALID,1,VALID,0,
2011-06-23, 03:27:05,VALID,1001.39,VALID,0,INVALID,163.861,VALID,0,VALID,22.6315,VALID,1,VALID,0,
2011-06-23, 03:28:05,VALID,1001.4,VALID,0,INVALID,163.868,VALID,0,VALID,22.6721,VALID,1,VALID,0,
2011-06-23, 03:29:05,VALID,1001.43,VALID,0,INVALID,163.861,VALID,0,VALID,22.6509,VALID,1,VALID,0,
2011-06-23, 03:30:05,VALID,1001.44,VALID,0,INVALID,163.853,VALID,0.100563,VALID,22.6881,VALID,1,VALID,0,
2011-06-23, 03:31:05,VALID,1001.4,VALID,0,INVALID,163.868,VALID,0,VALID,22.7287,VALID,351,VALID,0,
2011-06-23, 03:32:05,VALID,1001.38,VALID,0,INVALID,163.853,VALID,0.100563,VALID,22.7076,VALID,37,VALID,0,
2011-06-23, 03:33:05,VALID,1001.4,VALID,0,INVALID,163.861,VALID,0.100563,VALID,22.7076,VALID,37,VALID,0,
2011-06-23, 03:34:05,VALID,1001.43,VALID,0,INVALID,163.845,VALID,0.100563,VALID,22.7076,VALID,34,VALID,0,
2011-06-23, 03:35:05,VALID,1001.44,VALID,0,INVALID,163.823,VALID,0.100563,VALID,22.7076,VALID,34,VALID,0,
2011-06-23, 03:36:05,VALID,1001.46,VALID,0,INVALID,163.83,VALID,0,VALID,22.7287,VALID,34,VALID,0,
2011-06-23, 03:37:05,VALID,1001.46,VALID,0,INVALID,163.838,VALID,0,VALID,22.6881,VALID,34,VALID,0,
2011-06-23, 03:38:05,VALID,1001.46,VALID,0,INVALID,163.83,VALID,0.100563,VALID,22.6881,VALID,34,VALID,0,
2011-06-23, 03:39:05,VALID,1001.5,VALID,0,INVALID,163.876,VALID,0.100563,VALID,22.6898,VALID,33,VALID,0,
2011-06-23, 03:40:05,VALID,1001.52,VALID,0,INVALID,163.845,VALID,0,VALID,22.6492,VALID,27,VALID,0,
2011-06-23, 03:41:05,VALID,1001.55,VALID,0,INVALID,163.845,VALID,0,VALID,22.6915,VALID,25,VALID,0,
2011-06-23, 03:42:05,VALID,1001.58,VALID,0,INVALID,163.861,VALID,0.100563,VALID,22.6475,VALID,359,VALID,0,
2011-06-23, 03:43:05,VALID,1001.57,VALID,0,INVALID,163.838,VALID,0.100563,VALID,22.727,VALID,5,VALID,0,
2011-06-23, 03:44:05,VALID,1001.57,VALID,0,INVALID,163.823,VALID,0.100563,VALID,22.7854,VALID,354,VALID,0,
2011-06-23, 03:45:05,VALID,1001.56,VALID,0,INVALID,163.83,VALID,0,VALID,22.7888,VALID,352,VALID,0,
2011-06-23, 03:46:05,VALID,1001.57,VALID,0,INVALID,163.845,VALID,0,VALID,22.7677,VALID,352,VALID,0,
2011-06-23, 03:47:05,VALID,1001.54,VALID,0,INVALID,163.838,VALID,0,VALID,22.7871,VALID,353,VALID,0,
2011-06-23, 03:48:05,VALID,1001.51,VALID,0,INVALID,163.838,VALID,0,VALID,22.8083,VALID,353,VALID,0,
2011-06-23, 03:49:05,VALID,1001.53,VALID,0,INVALID,163.823,VALID,0,VALID,22.826,VALID,353,VALID,0,
2011-06-23, 03:50:05,VALID,1001.51,VALID,0,INVALID,163.838,VALID,0,VALID,22.8472,VALID,352,VALID,0,
2011-06-23, 03:51:05,VALID,1001.52,VALID,0,INVALID,163.845,VALID,0,VALID,22.8472,VALID,353,VALID,0,
2011-06-23, 03:52:05,VALID,1001.53,VALID,0,INVALID,163.838,VALID,0,VALID,22.826,VALID,353,VALID,0,
2011-06-23, 03:53:05,VALID,1001.51,VALID,0,INVALID,163.861,VALID,0,VALID,22.826,VALID,358,VALID,0,
2011-06-23, 03:54:05,VALID,1001.51,VALID,0,INVALID,163.838,VALID,0,VALID,22.826,VALID,358,VALID,0,